Weather observations for the past three days for
Brunswick County Airport
Imperial (Metric)
Date Time (edt) Wind (mph) Vis. (mi.) Weather Sky Cond. Temperature (ºF) Relative Humidity Wind Chill (°F) Heat Index (°F) Pressure Precipitation (in)
Air Dwpt 6 hour altimeter (in) sea level (mb) 1 hr 3 hr 6 hr
Max. Min.
20 20:30 S 8 10.00 Fair CLR 82.9 77 82% 92 30.08 0.0
20 20:10 S 9 G 16 10.00 Fair CLR 82.9 76.1 80% 91 30.08 0.0
20 19:50 SW 7 10.00 Partly Cloudy SCT014 83.3 75.4 87.8 83.1 77% 91 30.08 0.0
20 19:30 S 10 G 17 10.00 Partly Cloudy SCT016 83.3 75.9 79% 92 30.07 0.0
20 19:10 SW 10 10.00 Fair CLR 83.3 75.7 78% 91 30.07 0.0
20 18:50 SW 10 G 16 10.00 Fair CLR 84.2 75.4 75% 93 30.07 0.0
20 18:30 SW 6 10.00 Fair CLR 85.5 75.7 73% 95 30.07 0.0
20 18:10 S 9 10.00 Fair CLR 85.5 75.4 72% 95 30.07 0.0
20 17:50 S 9 10.00 Fair CLR 86 75.6 71% 96 30.07 0.0
20 17:30 SW 10 10.00 Fair CLR 86.2 75 69% 95 30.07 0.0
20 17:10 SW 7 10.00 Fair CLR 86.2 75 69% 95 30.07 0.0
20 16:50 SW 10 G 16 10.00 Fair CLR 86.5 75.2 69% 96 30.08 0.0
20 16:30 S 8 G 16 10.00 Fair CLR 86.5 75.2 69% 96 30.08 0.0
20 16:10 SW 8 G 17 10.00 Fair CLR 86.7 75.7 70% 97 30.09 0.0
20 15:50 S 6 10.00 Fair CLR 87.1 75.9 70% 98 30.09 0.0
20 15:30 SW 8 10.00 Fair CLR 87.3 76.1 70% 98 30.1 0.0
20 15:10 S 8 10.00 Fair CLR 86.9 76.5 71% 98 30.11 0.0
20 14:50 S 9 G 16 10.00 Fair CLR 86.5 75.9 71% 97 30.11 0.0
20 14:30 SW 7 10.00 Fair CLR 86.9 75.9 70% 97 30.11 0.0
20 14:10 SW 8 10.00 Fair CLR 86.9 75.7 70% 97 30.12 0.0
20 13:50 S 8 10.00 Fair CLR 88 76.3 88 79.7 68% 99 30.13 0.0
20 13:30 SW 9 10.00 Fair CLR 87.6 75.9 68% 98 30.13 0.0
20 13:10 SW 8 10.00 Fair CLR 87.1 75.2 68% 97 30.13 0.0
20 12:50 SW 8 10.00 Fair CLR 87.6 75.6 68% 98 30.14 0.0
20 12:30 W 10 10.00 Fair CLR 87.6 75.4 67% 98 30.13 0.0
20 12:10 SW 9 10.00 Fair CLR 87.1 75.4 68% 97 30.13 0.0
20 11:50 SW 10 10.00 Partly Cloudy SCT019 85.6 74.7 70% 94 30.14 0.0
20 11:30 SW 8 10.00 Partly Cloudy SCT020 85.3 74.8 71% 94 30.14 0.0
20 11:10 W 13 G 16 10.00 Partly Cloudy SCT020 SCT025 SCT030 85.3 74.5 70% 93 30.15 0.0
20 10:50 SW 10 10.00 Partly Cloudy SCT020 SCT027 SCT037 86 74.8 69% 95 30.14 0.0
20 10:30 W 12 10.00 Partly Cloudy SCT020 SCT027 SCT035 85.5 74.3 69% 94 30.14 0.0
20 10:10 SW 8 10.00 Partly Cloudy SCT020 SCT025 SCT050 85.1 74.3 70% 93 30.14 0.0
20 09:50 W 9 10.00 Partly Cloudy SCT065 84.2 74.3 72% 92 30.14 0.0
20 09:30 SW 9 10.00 Partly Cloudy SCT021 SCT065 83.8 73.4 71% 90 30.14 0.0
20 09:10 W 8 10.00 Partly Cloudy SCT065 83.7 73.4 71% 90 30.13 0.0
20 08:50 W 8 10.00 Fair CLR 83.3 73.6 73% 90 30.13 0.0
20 08:30 W 6 10.00 Fair CLR 82.4 74.1 76% 89 30.13 0.0
20 08:10 SW 6 10.00 Fair CLR 81.1 75 82% 87 30.12 0.0
20 07:50 W 3 10.00 Partly Cloudy SCT040 79.3 74.8 79.3 73.9 86% 83 30.12 0.0 0.06
20 07:30 Calm 10.00 Partly Cloudy SCT040 76.1 73.8 93% 76 30.12 0.0
20 07:10 Calm 10.00 Fair CLR 76.1 74.1 94% 76 30.12 0.0
20 06:50 Calm 10.00 Fair CLR 76.1 73.9 93% 76 30.11 0.0 0.01
20 06:30 Calm 10.00 Fair CLR 75 73.6 95% 73 30.1 0.0
20 06:10 Calm 10.00 Fair CLR 74.8 73.4 95% 30.1 0.0
20 05:50 Calm 10.00 Fair CLR 74.3 73.2 96% 30.09 0.0
20 05:30 Calm 7.00 Fair CLR 74.3 72.9 95% 30.08 0.0
20 05:10 Calm 10.00 Fair CLR 74.3 72.9 95% 30.08 0.0
20 04:50 Calm 10.00 Fair CLR 74.3 72.9 95% 30.07 0.0 0.05
20 04:30 Calm 10.00 Partly Cloudy SCT015 SCT021 74.3 72.9 95% 30.08 0.0
20 04:10 Calm 10.00 Partly Cloudy SCT015 74.1 72.7 95% 30.08 0.0
20 03:50 Calm 10.00 Fair CLR 74.3 72.9 95% 30.08 0.0
20 03:30 Calm 10.00 Fair CLR 74.3 72.9 95% 30.09 0.0
20 03:10 Calm 10.00 Fair CLR 74.3 72.7 95% 30.09 0.0
20 02:50 Calm 5.00 Partly Cloudy SCT050 SCT075 74.3 72.5 94% 30.09 0.0 0.05
20 02:30 Calm 5.00 Partly Cloudy SCT050 74.3 72.5 94% 30.1 0.0 0.02
20 02:10 Calm 10.00 Partly Cloudy SCT045 SCT050 SCT065 74.3 72.5 94% 30.11 0.0 0.01
20 01:30 W 6 5.00 Overcast SCT010 BKN044 OVC065 73.9 72 94% 30.12 0.0 0.2
20 01:10 W 16 G 26 1.00 Overcast BKN010 OVC023 74.3 71.6 91% 30.14 0.0 0.1
20 00:50 NW 6 10.00 Mostly Cloudy SCT024 BKN033 BKN045 76.1 73.2 91% 76 30.11 0.0 0.17
20 00:30 Calm 2.00 Overcast SCT012 BKN028 OVC041 75.2 72.7 92% 74 30.1 0.0 0.09
20 00:10 Calm 10.00 Overcast SCT026 BKN038 OVC060 75.4 72.3 90% 75 30.11 0.0
19 23:50 NW 7 10.00 Overcast SCT015 BKN026 OVC033 76.3 72.1 87% 77 30.11 0.0
19 23:30 W 15 G 20 10.00 Overcast BKN016 BKN029 OVC044 80.8 76.3 86% 87 30.1 0.0
19 23:10 S 12 G 21 10.00 Overcast BKN014 BKN029 OVC120 81.1 77.7 89% 89 30.08 0.0
19 22:50 S 6 10.00 Mostly Cloudy BKN014 BKN022 BKN027 81.1 78.1 90% 89 30.09 0.0 0.05 0.05
19 22:30 S 5 10.00 Mostly Cloudy SCT020 SCT035 BKN065 82 76.8 84% 90 30.1 0.0
19 22:10 SW 8 10.00 Mostly Cloudy BKN020 BKN030 BKN040 82 76.1 82% 89 30.11 0.0
19 21:50 SW 6 10.00 Mostly Cloudy BKN018 BKN027 BKN120 81.9 75.4 81% 89 30.11 0.0
19 21:30 S 7 10.00 Mostly Cloudy BKN018 BKN024 BKN031 82 75.4 80% 89 30.11 0.0
19 21:10 SW 7 10.00 Partly Cloudy SCT023 SCT028 81.5 75 81% 88 30.1 0.0
19 20:50 SW 8 10.00 Partly Cloudy SCT027 81.5 74.7 80% 88 30.1 0.0
19 20:30 SW 7 10.00 Fair CLR 81.5 75 81% 88 30.09 0.0
19 20:10 SW 6 10.00 Fair CLR 81.7 74.5 79% 88 30.09 0.0
19 19:50 SW 5 10.00 Fair CLR 82.6 74.8 87.4 81.9 78% 90 30.08 0.0
19 19:30 SW 5 10.00 Fair CLR 82.8 75.2 78% 90 30.06 0.0
19 19:10 SW 8 10.00 Fair CLR 83.1 74.7 76% 90 30.06 0.0
19 18:50 SW 6 10.00 Fair CLR 84.6 74.3 71% 92 30.06 0.0
19 18:30 S 6 10.00 Fair CLR 83.5 74.5 74% 91 30.06 0.0
19 18:10 SW 7 10.00 Fair CLR 82 74.3 77% 88 30.06 0.0
19 17:50 SW 6 10.00 Fair CLR 82 74.3 77% 88 30.05 0.0
19 17:30 SW 3 10.00 Fair CLR 81.9 74.5 78% 88 30.06 0.0
19 17:10 SW 9 10.00 Fair CLR 82 74.3 77% 88 30.06 0.0
19 16:50 SW 7 10.00 Fair CLR 83.1 74.5 75% 90 30.06 0.0
19 16:30 S 8 G 16 10.00 Fair CLR 86 74.8 69% 95 30.06 0.0
19 16:10 SW 8 10.00 Fair CLR 85.5 74.8 71% 94 30.06 0.0
19 15:50 SW 9 10.00 Fair CLR 85.5 74.1 69% 93 30.06 0.0
19 15:30 SW 8 10.00 Fair CLR 85.5 72 64% 92 30.06 0.0
19 15:10 SW 10 G 16 10.00 Fair CLR 86.7 72.9 63% 94 30.07 0.0
19 14:50 SW 9 10.00 Fair CLR 85.8 74.5 69% 94 30.08 0.0
19 14:30 SW 8 10.00 Fair CLR 86 74.8 69% 95 30.09 0.0
19 14:10 SW 9 10.00 Fair CLR 85.1 74.1 70% 93 30.09 0.0
19 13:50 SW 8 10.00 Fair CLR 86.7 74.5 88 74.8 67% 95 30.1 0.0
19 13:30 SW 8 10.00 Fair CLR 88 75.2 66% 98 30.1 0.0
19 13:10 SW 9 10.00 Fair CLR 87.3 75 67% 97 30.11 0.0
19 12:50 SW 7 10.00 Fair CLR 86.5 74.3 67% 95 30.11 0.0
19 12:30 W 9 10.00 Fair CLR 86.5 74.8 68% 96 30.1 0.0
19 12:10 SW 8 10.00 Fair CLR 86.9 73.9 65% 95 30.1 0.0
19 11:50 W 9 10.00 Fair CLR 86 73.8 67% 94 30.1 0.0
19 11:30 SW 7 10.00 Fair CLR 86.9 73.9 65% 95 30.1 0.0
19 11:10 W 7 10.00 Partly Cloudy SCT019 SCT028 84.6 72.9 68% 91 30.1 0.0
19 10:50 SW 3 10.00 Partly Cloudy SCT017 SCT023 SCT028 84 74.1 72% 91 30.1 0.0
19 10:30 W 6 10.00 Mostly Cloudy SCT016 BKN027 BKN035 82.6 73.4 74% 89 30.09 0.0
19 10:10 W 5 10.00 Mostly Cloudy BKN016 BKN031 81.5 73.9 78% 87 30.08 0.0
19 09:50 NW 3 10.00 Partly Cloudy SCT031 81.5 74.5 79% 87 30.08 0.0
19 09:30 NW 3 10.00 Partly Cloudy SCT029 SCT041 80.2 74.3 82% 85 30.09 0.0
19 09:10 NW 3 10.00 Partly Cloudy SCT031 SCT042 78.1 74.3 88% 81 30.08 0.0
19 08:50 Calm 10.00 Partly Cloudy SCT019 SCT025 SCT029 77 73.6 89% 78 30.08 0.0
19 08:30 N 3 10.00 Fair CLR 76.1 73.2 91% 76 30.08 0.0
19 08:10 Calm 10.00 Partly Cloudy SCT018 SCT025 SCT034 75.9 73.4 92% 76 30.07 0.0
19 07:50 Calm 10.00 Mostly Cloudy SCT018 BKN025 BKN034 74.7 72.5 76.1 72.5 93% 30.07 0.0
19 07:30 Calm 10.00 Mostly Cloudy BKN018 BKN024 74.5 72.5 94% 30.07 0.0
19 07:10 Calm 10.00 Mostly Cloudy BKN018 74.8 72.7 93% 30.06 0.0
19 06:50 Calm 10.00 Partly Cloudy SCT018 74.3 72.5 94% 30.05 0.0
19 06:30 Calm 10.00 Partly Cloudy SCT016 74.3 71.8 92% 30.04 0.0
19 06:10 Calm 10.00 Fair CLR 76.1 72.3 88% 76 30.03 0.0
19 05:50 Calm 10.00 Fair CLR 74.7 72 91% 30.03 0.0
19 05:30 Calm 10.00 Fair CLR 74.3 72 92% 30.03 0.0
19 05:10 Calm 10.00 Partly Cloudy SCT120 74.3 71.8 92% 30.03 0.0
19 04:50 Calm 10.00 Fair CLR 72.9 71.4 95% 30.02 0.0
19 04:30 Calm 10.00 Fair CLR 72.9 71.2 95% 30.01 0.0
19 04:10 Calm 10.00 Fair CLR 72.7 71.1 95% 30.01 0.0
19 03:50 Calm 10.00 Fair CLR 73 71.2 94% 30.01 0.0
19 03:30 Calm 10.00 Fair CLR 72.7 71.1 95% 30.01 0.0
19 03:10 Calm 10.00 Fair CLR 72.7 71.1 95% 30 0.0
19 02:50 Calm 10.00 Fair CLR 72.5 70.9 95% 30.01 0.0
19 02:30 Calm 10.00 Fair CLR 72.5 70.9 95% 30.02 0.0
19 02:10 Calm 10.00 Fair CLR 72.5 70.9 95% 30.01 0.0
19 01:50 Calm 10.00 Fair CLR 72.5 70.7 82.9 72.5 94% 30.02 0.0 0.03
19 01:30 Calm 10.00 Fair CLR 72.5 70.7 94% 30.03 0.0
19 01:10 Calm 10.00 Fair CLR 72.7 70.9 94% 30.04 0.0
19 00:50 NW 5 10.00 Partly Cloudy SCT090 72.7 70.7 94% 30.05 0.0 0.01
19 00:30 NW 8 7.00 Overcast SCT006 BKN100 OVC120 72.9 71.1 94% 30.05 0.0 0.01
19 00:10 NW 12 G 18 5.00 Overcast SCT010 BKN065 OVC080 72.9 70.9 94% 30.05 0.0
18 23:50 NW 15 G 22 4.00 Overcast SCT015 BKN040 OVC065 73.6 70.7 91% 30.06 0.0 0.01
18 23:30 W 25 G 41 10.00 Mostly Cloudy and Breezy SCT015 SCT022 BKN045 81.5 73.6 77% 87 30.04 0.0
18 23:10 SW 10 G 22 10.00 Partly Cloudy SCT017 82 76.5 83% 90 30.01 0.0
18 22:50 SW 16 G 22 10.00 Fair CLR 82.4 76.1 81% 90 30.02 0.0
18 22:30 SW 9 G 18 10.00 Fair CLR 82.6 76.3 81% 91 30.02 0.0
18 22:10 SW 12 G 18 10.00 Partly Cloudy SCT110 82.8 76.1 80% 91 30.02 0.0
18 21:50 SW 12 G 17 10.00 Fair CLR 82.9 75.6 78% 91 30.01 0.0
18 21:30 SW 10 G 21 10.00 Fair CLR 82.8 75.6 79% 90 30.01 0.0
18 21:10 SW 10 G 20 10.00 Fair CLR 82.9 75.6 78% 91 30 0.0
18 20:50 SW 10 G 21 10.00 Fair CLR 82.6 75.2 78% 90 30 0.0
18 20:30 SW 10 G 22 10.00 Fair CLR 82.6 75.7 80% 90 29.98 0.0
18 20:10 SW 9 G 17 10.00 Fair CLR 82.9 76.1 80% 91 29.98 0.0
18 19:50 SW 13 G 23 10.00 Fair CLR 82.9 75.7 87.3 82.9 79% 91 29.98 0.0
18 19:30 SW 10 G 22 10.00 Fair CLR 83.3 76.1 79% 92 29.98 0.0
18 19:10 SW 14 G 23 10.00 Fair CLR 84.2 75.6 75% 93 29.96 0.0
18 18:50 SW 10 G 21 10.00 Fair CLR 84.4 76.3 77% 94 29.95 0.0
18 18:30 SW 14 G 22 10.00 Fair CLR 85.1 75.6 73% 94 29.94 0.0
18 18:10 SW 13 G 22 10.00 Fair CLR 85.3 75.9 74% 95 29.93 0.0
18 17:50 SW 12 G 20 10.00 Fair CLR 85.5 76.1 74% 95 29.94 0.0
18 17:30 SW 10 G 20 10.00 Fair CLR 86 75.4 71% 95 29.96 0.0
18 17:10 SW 10 G 21 10.00 Fair CLR 86 75.9 72% 96 29.96 0.0
18 16:50 SW 13 G 17 10.00 Fair CLR 86.5 75.4 69% 96 29.97 0.0
18 16:30 SW 10 G 22 10.00 Fair CLR 86.7 75 68% 96 29.98 0.0
18 16:10 SW 15 G 21 10.00 Fair CLR 86.2 75.2 70% 95 29.98 0.0
18 15:50 SW 10 G 20 10.00 Fair CLR 86.9 75.9 70% 97 29.99 0.0
18 15:30 SW 10 G 20 10.00 Fair CLR 86.5 76.1 71% 97 30 0.0
18 15:10 SW 13 G 21 10.00 Fair CLR 86 75.4 71% 95 30 0.0
18 14:50 S 13 G 20 10.00 Partly Cloudy SCT013 84.7 76.1 75% 94 30.01 0.0
18 14:30 S 10 G 18 10.00 Fair CLR 84 75.4 75% 92 30.02 0.0
18 14:10 SW 10 G 18 10.00 Fair CLR 83.8 75.4 76% 92 30.03 0.0
18 13:50 SW 14 G 21 10.00 Fair CLR 84.7 74.7 86.4 81.7 72% 93 30.03 0.0
18 13:30 SW 10 G 18 10.00 Fair CLR 84.7 73 68% 91 30.03 0.0
18 13:10 SW 13 G 20 10.00 Fair CLR 85.1 73.9 69% 93 30.04 0.0
18 12:50 SW 8 G 18 10.00 Fair CLR 85.1 73.8 69% 93 30.04 0.0
18 12:30 SW 10 G 18 10.00 Fair CLR 85.1 73.8 69% 93 30.04 0.0
18 12:10 SW 9 G 17 10.00 Fair CLR 85.1 73.4 68% 92 30.04 0.0
18 11:50 SW 10 G 16 10.00 Fair CLR 86.2 73.8 67% 94 30.04 0.0
18 11:30 SW 9 10.00 Fair CLR 84.7 73.4 69% 92 30.03 0.0
18 11:10 SW 8 10.00 Fair CLR 84.4 72.9 68% 91 30.03 0.0
18 10:50 SW 14 G 20 10.00 Fair CLR 83.8 72.5 69% 90 30.03 0.0
18 10:30 SW 12 G 18 10.00 Fair CLR 85.1 72.5 66% 91 30.03 0.0
18 10:10 SW 12 G 18 10.00 Fair CLR 84.9 72.5 66% 91 30.04 0.0
18 09:50 W 9 G 17 10.00 Fair CLR 84.6 72.3 67% 91 30.03 0.0
18 09:30 W 13 G 18 10.00 Fair CLR 85.1 71.8 64% 91 30.02 0.0
18 09:10 W 13 10.00 Fair CLR 84.6 73.2 69% 91 30.01 0.0
18 08:50 W 15 10.00 Fair CLR 83.8 73.8 72% 91 30.02 0.0
18 08:30 W 14 G 17 10.00 Fair CLR 83.7 73.8 72% 90 30.02 0.0
18 08:10 W 12 10.00 Mostly Cloudy SCT019 BKN026 82.9 74.3 75% 90 30.02 0.0
18 07:50 W 12 G 17 10.00 Mostly Cloudy BKN019 BKN026 81.9 75 82.4 77.5 80% 88 30.02 0.0
18 07:30 SW 9 10.00 Partly Cloudy SCT017 SCT026 SCT035 81.7 76.5 84% 89 30.01 0.0
18 07:10 SW 12 G 17 10.00 Partly Cloudy SCT036 SCT041 SCT065 81.5 76.1 84% 88 30.01 0.0
18 06:50 SW 14 G 18 10.00 Partly Cloudy SCT018 SCT023 SCT030 81.5 75.4 82% 88 30.01 0.0
18 06:30 SW 15 10.00 Mostly Cloudy BKN021 BKN030 81.5 75.9 83% 88 30 0.0
18 06:10 SW 16 G 21 10.00 Mostly Cloudy BKN021 BKN032 81.5 75.4 82% 88 30 0.0
18 05:50 SW 16 G 24 10.00 Partly Cloudy SCT019 SCT025 SCT030 81.5 75 81% 88 30 0.0
18 05:30 SW 14 G 22 10.00 Fair CLR 81.1 75 82% 87 29.99 0.0
18 05:10 SW 14 G 20 10.00 Fair CLR 81.1 74.7 81% 87 29.98 0.0
18 04:50 SW 13 G 18 10.00 Fair CLR 81.1 74.5 80% 87 29.97 0.0
18 04:30 SW 13 G 18 10.00 Fair CLR 81.1 75.4 83% 87 29.97 0.0
18 04:10 SW 9 G 18 10.00 Fair CLR 81.1 76.1 85% 88 29.97 0.0
18 03:50 SW 13 G 18 10.00 Partly Cloudy SCT015 81.1 76.3 85% 88 29.98 0.0
18 03:30 SW 13 G 17 10.00 Partly Cloudy SCT016 81.1 76.3 85% 88 29.98 0.0
18 03:10 SW 12 G 17 10.00 Partly Cloudy SCT014 SCT020 81.1 77 87% 88 29.99 0.0
18 02:50 SW 9 10.00 Partly Cloudy SCT014 SCT055 SCT070 80.2 77 90% 86 29.99 0.0
18 02:30 Calm 10.00 Mostly Cloudy SCT016 BKN055 79.3 75.7 89% 84 30 0.0
18 02:10 Calm 10.00 Partly Cloudy SCT016 SCT055 77.9 73.8 87% 80 30 0.0
18 01:50 Calm 10.00 Partly Cloudy SCT065 77.5 73.6 82.9 77 88% 79 30 0.0 0.01 0.01
18 01:30 SW 3 10.00 Partly Cloudy SCT065 77.4 74.1 90% 79 30 0.0 0.01
18 01:10 Calm 5.00 Mostly Cloudy SCT047 BKN065 BKN090 77 73.2 88% 78 30 0.0
18 00:50 SW 8 7.00 Mostly Cloudy SCT047 SCT055 BKN090 77 72.9 87% 78 30.01 0.0
18 00:30 SW 8 7.00 Mostly Cloudy SCT045 BKN065 BKN085 77.2 72.5 86% 79 30.01 0.0
18 00:10 SW 12 10.00 Partly Cloudy SCT120 77.9 72.5 84% 80 30.04 0.0
17 23:50 W 10 G 20 10.00 Mostly Cloudy SCT017 SCT044 BKN120 79.9 73.6 81% 84 30.03 0.0
17 23:30 SW 17 G 28 10.00 Mostly Cloudy SCT015 BKN023 BKN050 82.9 77.9 85% 93 30.03 0.0
17 23:10 SW 15 G 21 10.00 Mostly Cloudy SCT017 SCT050 BKN090 82.9 77.5 84% 92 30.02 0.0
17 22:50 SW 15 G 23 10.00 Partly Cloudy SCT019 82.9 77.4 83% 92 30.02 0.0
17 22:30 SW 9 G 23 10.00 Mostly Cloudy SCT017 BKN023 BKN030 82.9 77 82% 92 30.02 0.0
17 22:10 SW 13 G 23 10.00 Mostly Cloudy SCT018 SCT023 BKN030 82.9 76.5 81% 91 30.02 0.0
17 21:50 SW 12 G 22 10.00 Partly Cloudy SCT018 SCT024 82.9 76.6 81% 92 30.01 0.0
17 21:30 SW 14 G 23 10.00 Partly Cloudy SCT017 SCT023 82.9 76.8 82% 92 30 0.0
17 21:10 SW 10 G 22 10.00 Partly Cloudy SCT017 82.9 77.7 84% 93 29.98 0.0
Date Time (edt) Wind (mph) Vis. (mi.) Weather Sky Cond. Air Dwpt Max. Min. Relative Humidity Wind Chill (°F) Heat Index (°F) altimeter (in) sea level (mb) 1 hr 3 hr 6 hr
6 hour
Temperature (ºF) Pressure Precipitation (in)